TimeCDT,TemperatureF,Dew PointF,Humidity,Sea Level PressureIn,VisibilityMPH,Wind Direction,Wind SpeedMPH,Gust SpeedMPH,PrecipitationIn,Events,Conditions,WindDirDegrees,DateUTC
12:53 AM,64.4,57.2,77,30.01,10.0,Calm,Calm,-,N/A,,Clear,0,2012-10-23 05:53:00
1:53 AM,61.0,57.9,90,30.00,10.0,Calm,Calm,-,N/A,,Clear,0,2012-10-23 06:53:00
2:53 AM,60.1,57.0,90,30.01,10.0,Calm,Calm,-,N/A,,Clear,0,2012-10-23 07:53:00
3:53 AM,60.1,57.0,90,30.01,10.0,Calm,Calm,-,N/A,,Clear,0,2012-10-23 08:53:00
4:53 AM,59.0,57.0,93,30.02,10.0,South,3.5,-,N/A,,Clear,170,2012-10-23 09:53:00
5:53 AM,60.1,57.9,93,30.03,10.0,SSE,4.6,-,N/A,,Clear,160,2012-10-23 10:53:00
6:53 AM,60.1,57.9,93,30.05,10.0,Calm,Calm,-,N/A,,Mostly Cloudy,0,2012-10-23 11:53:00
7:53 AM,60.1,57.9,93,30.06,7.0,Calm,Calm,-,N/A,,Clear,0,2012-10-23 12:53:00
8:53 AM,64.0,61.0,90,30.06,10.0,SSE,5.8,-,N/A,,Clear,150,2012-10-23 13:53:00
9:53 AM,69.1,63.0,81,30.07,10.0,SSE,6.9,-,N/A,,Clear,160,2012-10-23 14:53:00
10:53 AM,73.9,62.1,66,30.07,10.0,South,8.1,-,N/A,,Clear,170,2012-10-23 15:53:00
12:53 PM,77.0,62.6,61,30.04,10.0,SSW,8.1,-,N/A,,Partly Cloudy,210,2012-10-23 17:53:00
1:53 PM,78.1,62.1,58,30.00,10.0,SSE,8.1,-,N/A,,Partly Cloudy,160,2012-10-23 18:53:00
2:53 PM,79.0,62.1,56,29.99,10.0,SE,6.9,-,N/A,,Partly Cloudy,140,2012-10-23 19:53:00
3:53 PM,79.0,62.1,56,29.98,10.0,SSE,6.9,-,N/A,,Clear,150,2012-10-23 20:53:00
4:53 PM,78.1,62.1,58,29.98,10.0,SSE,9.2,-,N/A,,Clear,160,2012-10-23 21:53:00
5:53 PM,75.9,63.0,64,29.98,10.0,SSE,5.8,-,N/A,,Clear,150,2012-10-23 22:53:00
6:53 PM,71.1,63.0,75,29.99,10.0,Calm,Calm,-,N/A,,Clear,0,2012-10-23 23:53:00
7:53 PM,64.9,62.1,90,29.99,10.0,Calm,Calm,-,N/A,,Clear,0,2012-10-24 00:53:00
8:53 PM,62.1,61.0,96,30.00,9.0,Calm,Calm,-,N/A,,Clear,0,2012-10-24 01:53:00
9:53 PM,63.0,62.1,97,30.00,10.0,Calm,Calm,-,N/A,,Clear,0,2012-10-24 02:53:00
10:53 PM,62.1,60.1,93,30.00,10.0,Calm,Calm,-,N/A,,Clear,0,2012-10-24 03:53:00
11:53 PM,64.0,61.0,90,29.99,10.0,Calm,Calm,-,N/A,,Clear,0,2012-10-24 04:53:00